Time,TemperatureF,DewpointF,PressureIn,WindDirection,WindDirectionDegrees,WindSpeedMPH,WindSpeedGustMPH,Humidity,HourlyPrecipIn,Conditions,Clouds,dailyrainin,SoftwareType,DateUTC
2013-07-02 00:02:00,69.0,68.0,27.85,SW,236,0.0,1.0,98,0.18,,,0.80,,2013-07-02 04:02:00,
2013-07-02 00:11:00,69.0,68.0,27.84,WSW,237,0.0,1.0,98,0.18,,,0.80,,2013-07-02 04:11:00,
2013-07-02 00:22:00,69.0,68.0,27.84,SSW,213,0.0,1.0,98,0.29,,,0.91,,2013-07-02 04:22:00,
2013-07-02 00:32:00,69.0,68.0,27.84,SSW,213,0.0,1.0,98,0.29,,,0.91,,2013-07-02 04:32:00,
2013-07-02 00:42:00,69.0,68.0,27.84,SSW,213,0.0,1.0,98,0.29,,,0.91,,2013-07-02 04:42:00,
2013-07-02 00:54:00,69.0,68.0,27.84,SSW,213,0.0,1.0,98,0.29,,,0.91,,2013-07-02 04:54:00,
2013-07-02 01:02:00,69.0,68.0,27.84,WSW,257,0.0,1.0,98,0.13,,,0.93,,2013-07-02 05:02:00,
2013-07-02 01:11:00,69.0,68.0,27.85,WSW,257,0.0,1.0,98,0.14,,,0.94,,2013-07-02 05:11:00,
2013-07-02 01:22:00,68.0,67.0,27.84,West,259,1.0,7.0,98,0.04,,,0.96,,2013-07-02 05:22:00,
2013-07-02 01:32:00,68.0,67.0,27.85,WSW,238,0.0,2.0,98,0.03,,,0.96,,2013-07-02 05:32:00,
2013-07-02 01:43:00,68.0,67.0,27.85,WSW,238,0.0,2.0,98,0.03,,,0.96,,2013-07-02 05:43:00,
2013-07-02 01:53:00,68.0,67.0,27.84,WNW,283,0.0,1.0,98,0.04,,,0.97,,2013-07-02 05:53:00,
2013-07-02 02:01:00,68.0,67.0,27.85,WNW,284,0.0,0.0,98,0.03,,,0.97,,2013-07-02 06:01:00,
2013-07-02 02:12:00,68.0,67.0,27.85,WNW,284,0.0,0.0,98,0.03,,,0.97,,2013-07-02 06:12:00,
2013-07-02 02:23:00,68.0,67.0,27.84,WNW,284,0.0,0.0,98,0.01,,,0.97,,2013-07-02 06:23:00,
2013-07-02 02:34:00,68.0,67.0,27.85,WNW,283,0.0,1.0,98,0.01,,,0.96,,2013-07-02 06:34:00,
2013-07-02 02:43:00,68.0,67.0,27.85,WNW,283,0.0,1.0,98,0.01,,,0.96,,2013-07-02 06:43:00,
2013-07-02 02:53:00,68.0,67.0,27.85,West,280,1.0,2.0,98,0.00,,,0.96,,2013-07-02 06:53:00,
2013-07-02 03:01:00,68.0,67.0,27.85,SW,228,0.0,1.0,98,0.00,,,0.96,,2013-07-02 07:01:00,
2013-07-02 03:12:00,68.0,67.0,27.85,SW,228,0.0,1.0,98,0.00,,,0.96,,2013-07-02 07:12:00,
2013-07-02 03:22:00,68.0,67.0,27.84,SW,228,0.0,1.0,98,0.00,,,0.96,,2013-07-02 07:22:00,
2013-07-02 03:34:00,68.0,67.0,27.84,SW,228,0.0,1.0,98,0.00,,,0.96,,2013-07-02 07:34:00,
2013-07-02 03:44:00,67.0,66.0,27.85,WSW,249,1.0,10.0,98,0.00,,,0.96,,2013-07-02 07:44:00,
2013-07-02 03:53:00,66.0,65.0,27.86,SW,221,1.0,3.0,98,0.01,,,0.97,,2013-07-02 07:53:00,
2013-07-02 04:02:00,66.0,65.0,27.86,SE,134,1.0,4.0,98,0.02,,,0.98,,2013-07-02 08:02:00,
2013-07-02 04:12:00,66.0,65.0,27.86,SE,134,1.0,4.0,98,0.02,,,0.98,,2013-07-02 08:12:00,
2013-07-02 04:22:00,66.0,65.0,27.87,SW,233,1.0,2.0,98,0.02,,,0.98,,2013-07-02 08:22:00,
2013-07-02 04:33:00,66.0,65.0,27.87,SW,233,1.0,2.0,98,0.02,,,0.98,,2013-07-02 08:33:00,
2013-07-02 04:44:00,66.0,65.0,27.87,SW,228,0.0,1.0,98,0.02,,,0.98,,2013-07-02 08:44:00,
2013-07-02 04:53:00,66.0,65.0,27.87,SW,228,0.0,0.0,98,0.02,,,0.99,,2013-07-02 08:53:00,
2013-07-02 05:02:00,66.0,65.0,27.87,ESE,118,0.0,1.0,98,0.01,,,0.99,,2013-07-02 09:02:00,
2013-07-02 05:11:00,66.0,65.0,27.87,ESE,118,0.0,1.0,98,0.01,,,0.99,,2013-07-02 09:11:00,
2013-07-02 05:33:00,66.0,66.0,27.87,South,187,0.0,1.0,99,0.01,,,0.99,,2013-07-02 09:33:00,
2013-07-02 05:43:00,66.0,65.0,27.88,South,187,0.0,1.0,98,0.01,,,0.99,,2013-07-02 09:43:00,
2013-07-02 05:52:00,66.0,65.0,27.89,South,187,0.0,1.0,98,0.00,,,0.99,,2013-07-02 09:52:00,
2013-07-02 06:01:00,66.0,66.0,27.89,South,187,0.0,1.0,99,0.00,,,0.99,,2013-07-02 10:01:00,
2013-07-02 06:11:00,66.0,66.0,27.89,South,187,0.0,1.0,99,0.00,,,0.99,,2013-07-02 10:11:00,
2013-07-02 06:22:00,66.0,66.0,27.89,South,187,0.0,1.0,99,0.00,,,0.99,,2013-07-02 10:22:00,
2013-07-02 06:44:00,66.0,66.0,27.89,South,188,0.0,1.0,99,0.00,,,0.99,,2013-07-02 10:44:00,
2013-07-02 06:52:00,68.0,68.0,27.90,East,79,0.0,2.0,99,0.00,,,0.99,,2013-07-02 10:52:00,
2013-07-02 07:01:00,68.0,68.0,27.89,ESE,103,0.0,1.0,99,0.00,,,0.99,,2013-07-02 11:01:00,
2013-07-02 07:11:00,68.0,68.0,27.89,ESE,103,0.0,1.0,99,0.00,,,0.99,,2013-07-02 11:11:00,
2013-07-02 07:22:00,69.0,68.0,27.90,SSW,208,0.0,2.0,98,0.00,,,0.99,,2013-07-02 11:22:00,
2013-07-02 07:33:00,69.0,68.0,27.90,SSW,208,0.0,2.0,98,0.00,,,0.99,,2013-07-02 11:33:00,
2013-07-02 07:42:00,69.0,68.0,27.90,SSW,208,0.0,2.0,98,0.00,,,0.99,,2013-07-02 11:42:00,
2013-07-02 07:52:00,69.0,68.0,27.90,SSW,208,0.0,2.0,98,0.00,,,0.99,,2013-07-02 11:52:00,
2013-07-02 11:33:00,75.0,72.0,27.91,SW,228,0.0,1.0,91,0.00,,,0.99,,2013-07-02 15:33:00,
2013-07-02 11:44:00,75.0,72.0,27.91,SW,228,0.0,1.0,91,0.00,,,0.99,,2013-07-02 15:44:00,
2013-07-02 11:53:00,77.0,73.0,27.92,SSW,208,1.0,4.0,87,0.00,,,0.99,,2013-07-02 15:53:00,
2013-07-02 12:01:00,77.0,73.0,27.92,SSW,208,1.0,4.0,87,0.00,,,0.99,,2013-07-02 16:01:00,
2013-07-02 12:12:00,77.0,73.0,27.91,SE,128,3.0,6.0,87,0.00,,,0.99,,2013-07-02 16:12:00,
2013-07-02 12:33:00,78.0,73.0,27.91,SE,124,3.0,8.0,86,0.00,,,0.99,,2013-07-02 16:33:00,
2013-07-02 12:43:00,78.0,73.0,27.91,SE,124,3.0,8.0,86,0.00,,,0.99,,2013-07-02 16:43:00,
2013-07-02 13:02:00,76.0,72.0,27.91,SE,142,5.0,11.0,88,0.00,,,0.99,,2013-07-02 17:02:00,
2013-07-02 13:12:00,76.0,73.0,27.92,ESE,120,5.0,6.0,89,0.00,,,0.99,,2013-07-02 17:12:00,
2013-07-02 13:43:00,75.0,71.0,27.91,ESE,114,7.0,10.0,88,0.00,,,0.99,,2013-07-02 17:43:00,
2013-07-02 13:53:00,74.0,70.0,27.91,East,79,7.0,10.0,86,0.00,,,0.99,,2013-07-02 17:53:00,
2013-07-02 14:02:00,74.0,70.0,27.91,East,79,7.0,10.0,86,0.00,,,0.99,,2013-07-02 18:02:00,
2013-07-02 14:12:00,73.0,69.0,27.92,SE,131,3.0,10.0,88,0.00,,,0.99,,2013-07-02 18:12:00,
2013-07-02 14:23:00,72.0,68.0,27.92,East,96,7.0,10.0,87,0.00,,,0.99,,2013-07-02 18:23:00,
2013-07-02 14:34:00,72.0,68.0,27.92,East,96,7.0,10.0,87,0.00,,,0.99,,2013-07-02 18:34:00,
2013-07-02 14:43:00,72.0,68.0,27.92,ESE,105,6.0,9.0,88,0.00,,,0.99,,2013-07-02 18:43:00,
2013-07-02 14:53:00,73.0,69.0,27.92,ESE,105,7.0,11.0,86,0.00,,,0.99,,2013-07-02 18:53:00,
2013-07-02 15:01:00,73.0,69.0,27.92,ESE,105,7.0,11.0,86,0.00,,,0.99,,2013-07-02 19:01:00,
2013-07-02 15:12:00,72.0,68.0,27.91,ENE,65,6.0,11.0,88,0.00,,,0.99,,2013-07-02 19:12:00,
2013-07-02 15:22:00,71.0,68.0,27.92,East,81,4.0,6.0,89,0.00,,,0.99,,2013-07-02 19:22:00,
2013-07-02 15:34:00,70.0,68.0,27.92,ENE,76,2.0,6.0,92,0.02,,,1.01,,2013-07-02 19:34:00,
2013-07-02 15:43:00,70.0,68.0,27.92,ENE,76,2.0,6.0,92,0.02,,,1.01,,2013-07-02 19:43:00,
2013-07-02 15:53:00,69.0,67.0,27.93,SE,134,4.0,6.0,93,0.04,,,1.03,,2013-07-02 19:53:00,
2013-07-02 16:02:00,69.0,67.0,27.93,SE,134,4.0,6.0,93,0.04,,,1.03,,2013-07-02 20:02:00,
2013-07-02 16:11:00,68.0,66.0,27.93,East,90,2.0,6.0,94,0.05,,,1.04,,2013-07-02 20:11:00,
2013-07-02 16:22:00,67.0,66.0,27.93,NE,37,4.0,7.0,95,0.42,,,1.41,,2013-07-02 20:22:00,
2013-07-02 16:43:00,66.0,65.0,27.94,ESE,103,3.0,4.0,96,0.68,,,1.69,,2013-07-02 20:43:00,
2013-07-02 16:52:00,66.0,65.0,27.93,ENE,72,4.0,7.0,97,0.89,,,1.92,,2013-07-02 20:52:00,
2013-07-02 17:03:00,66.0,65.0,27.93,ENE,72,4.0,7.0,97,0.89,,,1.92,,2013-07-02 21:03:00,
2013-07-02 17:11:00,66.0,65.0,27.94,ESE,121,5.0,9.0,96,0.87,,,1.92,,2013-07-02 21:11:00,
2013-07-02 17:22:00,66.0,65.0,27.94,SE,133,3.0,7.0,96,0.50,,,1.92,,2013-07-02 21:22:00,
2013-07-02 17:33:00,66.0,65.0,27.94,ESE,103,3.0,7.0,96,0.22,,,1.91,,2013-07-02 21:33:00,
2013-07-02 17:44:00,66.0,65.0,27.94,ESE,103,3.0,7.0,96,0.22,,,1.91,,2013-07-02 21:44:00,
2013-07-02 17:52:00,65.0,64.0,27.94,ESE,104,3.0,6.0,95,0.02,,,1.93,,2013-07-02 21:52:00,
2013-07-02 18:01:00,65.0,64.0,27.94,ESE,104,3.0,6.0,95,0.02,,,1.93,,2013-07-02 22:01:00,
2013-07-02 18:11:00,65.0,64.0,27.94,East,94,3.0,5.0,96,0.02,,,1.93,,2013-07-02 22:11:00,
2013-07-02 18:22:00,65.0,64.0,27.94,East,90,5.0,9.0,96,0.02,,,1.93,,2013-07-02 22:22:00,
2013-07-02 18:43:00,64.0,63.0,27.94,East,101,5.0,8.0,96,0.02,,,1.88,,2013-07-02 22:43:00,
2013-07-02 18:53:00,64.0,63.0,27.94,East,97,5.0,6.0,96,0.00,,,1.88,,2013-07-02 22:53:00,
2013-07-02 19:01:00,64.0,63.0,27.94,East,96,4.0,8.0,96,0.00,,,1.88,,2013-07-02 23:01:00,
2013-07-02 19:12:00,64.0,63.0,27.94,East,96,4.0,8.0,96,0.00,,,1.88,,2013-07-02 23:12:00,
2013-07-02 19:22:00,63.0,62.0,27.94,ESE,121,4.0,7.0,96,0.02,,,1.90,,2013-07-02 23:22:00,
2013-07-02 19:33:00,63.0,62.0,27.95,East,82,3.0,5.0,97,0.05,,,1.91,,2013-07-02 23:33:00,
2013-07-02 19:44:00,63.0,62.0,27.95,East,82,3.0,5.0,97,0.05,,,1.91,,2013-07-02 23:44:00,
2013-07-02 19:52:00,63.0,62.0,27.96,SE,143,1.0,2.0,97,0.09,,,1.95,,2013-07-02 23:52:00,
2013-07-02 20:01:00,63.0,62.0,27.96,ENE,66,1.0,3.0,97,0.32,,,2.18,,2013-07-03 00:01:00,
2013-07-02 20:22:00,63.0,62.0,27.97,ESE,110,2.0,2.0,97,0.31,,,2.19,,2013-07-03 00:22:00,
2013-07-02 20:33:00,62.0,61.0,27.97,East,79,5.0,7.0,97,0.38,,,2.28,,2013-07-03 00:33:00,
2013-07-02 20:44:00,62.0,61.0,27.97,East,79,5.0,7.0,97,0.38,,,2.28,,2013-07-03 00:44:00,
2013-07-02 20:52:00,62.0,61.0,27.97,ESE,106,4.0,5.0,97,0.41,,,2.36,,2013-07-03 00:52:00,
2013-07-02 21:01:00,62.0,61.0,27.97,ESE,106,4.0,5.0,97,0.41,,,2.36,,2013-07-03 01:01:00,
2013-07-02 21:22:00,62.0,61.0,27.97,ENE,72,3.0,6.0,98,0.34,,,2.51,,2013-07-03 01:22:00,
2013-07-02 21:33:00,62.0,61.0,27.97,East,95,2.0,4.0,98,0.43,,,2.61,,2013-07-03 01:33:00,
2013-07-02 21:57:00,62.0,61.0,27.97,NNE,30,0.0,2.0,98,0.38,,,2.31,,2013-07-03 01:57:00,
2013-07-02 22:06:00,62.0,61.0,27.98,East,79,2.0,4.0,98,0.32,,,2.33,,2013-07-03 02:06:00,
2013-07-02 22:28:00,62.0,61.0,27.98,East,79,2.0,4.0,98,0.32,,,2.33,,2013-07-03 02:28:00,
2013-07-02 22:39:00,62.0,61.0,27.99,East,81,2.0,5.0,98,0.08,,,2.23,,2013-07-03 02:39:00,
2013-07-02 22:44:00,62.0,61.0,27.99,East,81,2.0,5.0,98,0.08,,,2.23,,2013-07-03 02:44:00,
2013-07-02 23:07:00,61.0,60.0,27.97,ENE,74,1.0,4.0,97,0.08,,,2.27,,2013-07-03 03:07:00,
2013-07-02 23:13:00,61.0,60.0,27.97,ENE,74,1.0,4.0,97,0.08,,,2.27,,2013-07-03 03:13:00,
2013-07-02 23:26:00,61.0,60.0,27.97,ESE,106,3.0,4.0,98,0.05,,,2.27,,2013-07-03 03:26:00,
2013-07-02 23:36:00,61.0,60.0,27.97,ESE,106,3.0,4.0,98,0.05,,,2.27,,2013-07-03 03:36:00,
2013-07-02 23:48:00,61.0,60.0,27.98,ENE,58,3.0,3.0,97,0.04,,,2.25,,2013-07-03 03:48:00,